Regional Weather Roundup
Issued by NWS Boston, MA

Current Version | Previous Version | Text Only | Print | Product List | Glossary Off
Versions: 1 2 3 4 5 6 7 8 9 10 11 12 13 14 15 16 17 18 19 20 21 22 23 24 25 26 27 28 29 30 31 32 33 34 35 36 37 38 39 40 41 42 43 44 45 46 47 48 49 50

000
ASUS41 KBOX 021510
RWRBOX

REGIONAL WEATHER ROUNDUP
NATIONAL WEATHER SERVICE TAUNTON MA
1000 AM EST FRI DEC 02 2016

NOTE:  "FAIR" INDICATES FEW OR NO CLOUDS BELOW 12,000 FEET WITH NO
SIGNIFICANT WEATHER AND/OR OBSTRUCTIONS TO VISIBILITY.

MAZALL-021600-
EASTERN MASSACHUSETTS

CITY           SKY/WX    TMP DP  RH WIND       PRES   REMARKS
BOSTON         MOSUNNY   46  33  60 W15G21    29.78F
BEVERLY        SUNNY     46  33  60 W9        29.76S
LAWRENCE       SUNNY     46  33  60 SW10      29.77S
BEDFORD        MOSUNNY   47  31  53 W9        29.77S
BLUE HILL        N/A     42  31  64 W10G18    29.76S
NORWOOD        SUNNY     47  32  56 W14G20    29.78S
MARSHFIELD     SUNNY     46  32  57 W10G21    29.78S
PLYMOUTH       SUNNY     45  31  58 W13       29.80S
TAUNTON        SUNNY     47  31  53 W8        29.80S
NEW BEDFORD    SUNNY     46  31  55 W17       29.80S
$$

MAZALL-021600-
CAPE COD AND THE ISLANDS

CITY           SKY/WX    TMP DP  RH WIND       PRES   REMARKS
FALMOUTH       SUNNY     46  32  57 MISG      29.81S
HYANNIS        SUNNY     47  32  56 W13       29.79S
CHATHAM        SUNNY     47  32  56 VRB7      29.81R
PROVINCETOWN   SUNNY     46  35  65 W15G22    29.79S
NANTUCKET      PTSUNNY   47  34  60 W18G24    29.82S
MARTHAS VNYRD  SUNNY     48  33  56 W15G23    29.82S
$$

MAZALL-021600-
CENTRAL AND WESTERN MASSACHUSETTS

CITY           SKY/WX    TMP DP  RH WIND       PRES   REMARKS
WORCESTER      SUNNY     41  29  62 W17G28    29.78R
FITCHBURG      SUNNY     45  30  55 W16G22    29.78S
ORANGE         CLOUDY    41  32  70 SW8       29.78S
SPRINGFIELD    PTSUNNY   42  31  64 S9        29.81S
WESTFIELD      CLOUDY    43  32  65 S5        29.82S
NORTH ADAMS    CLOUDY    42  30  62 VRB6G22   29.79R
PITTSFIELD     CLOUDY    38  30  73 SW7       29.78S
$$

RIZALL-021600-
RHODE ISLAND

CITY           SKY/WX    TMP DP  RH WIND       PRES   REMARKS
PROVIDENCE     MOSUNNY   47  31  53 W12       29.82S
NEWPORT        SUNNY     45  32  60 W9        29.83R
BLOCK ISLAND   SUNNY     46  36  68 W16G22    29.86R
SMITHFIELD     SUNNY     45  31  58 W14G25    29.80S
WESTERLY       SUNNY     47  29  49 VRB7      29.86R
$$

CTZALL-021600-
CONNECTICUT

CITY           SKY/WX    TMP DP  RH WIND       PRES   REMARKS
BRADLEY INTL   MOSUNNY   45  32  60 SW6       29.84R
HARTFORD       PTSUNNY   44  31  60 SW5       29.85S
BRIDGEPORT     SUNNY    N/A N/A N/A W16       29.88S
DANBURY        MOSUNNY   45  31  58 W14G22    29.88R
GROTON         SUNNY     49  33  54 W12G17    29.86R
NEW HAVEN      MOSUNNY   44  31  60 W7        29.88R
CHESTER        FAIR      43  30  61 W8G16     29.86R
MERIDEN        SUNNY     47  30  51 W7        29.86S
WILLIMANTIC    CLOUDY    45  31  58 W9        29.85S
OXFORD         MOSUNNY   43  28  56 MISG      29.87R
$$

MEZ002-015-021-024-NHZ003-005-008-011-012-014-VTZ005-008-021600-
NORTHERN NEW ENGLAND

CITY           SKY/WX    TMP DP  RH WIND       PRES   REMARKS
PORTLAND ME    MOSUNNY   47  33  58 W10       29.71S
BANGOR ME      MOSUNNY   42  36  79 VRB6      29.67R
CONCORD NH     SUNNY     47  31  53 W12       29.74S
MANCHESTER NH  MOSUNNY   46  30  53 W15G22    29.74S
NASHUA NH      MOSUNNY   46  32  58 W7        29.76F
PORTSMOUTH NH  MOSUNNY   46  32  58 W12       29.72F
JAFFREY NH     CLOUDY    39  33  79 VRB6      29.76R
KEENE NH       CLOUDY    44  32  62 SW8       29.77S
BURLINGTON VT  CLOUDY    43  34  70 S16G24    29.69S
MT. WASHINGTON FOG       19  19 100 W43G54      N/A  VSB 0   WCI  -2
$$

NYZ052-076-021600-
EASTERN NEW YORK

CITY           SKY/WX    TMP DP  RH WIND       PRES   REMARKS
ALBANY         PTSUNNY   45  32  60 W8        29.81R
NEW YORK CITY  PTSUNNY   47  30  51 W15       29.92R
$$

ANZALL-021600-
MARINE OBSERVATIONS

STATION/POSITION TIME  TEMP    WIND        PRES    VSBY  WAVE
                       AIR SEA DIR/SP/G                  HT/PER
                 (UTC) (F)     (DEG/KT/KT) (MB)    (MI)  (FT/S)
BOSTON BUOY      1450   44 51  250/ 19/ 23 1006.8R         3/10
BUZZARDS BAY     1400   44     270/ 23/ 26 1010.2S
NANTUCKET SOUND  NOT AVBL
MASS BAY-STELLWA 1404   44 50  280/ 17/ 21 1007.2F  1 7/8
ISLE OF SHOALS   1400   43     270/ 23/ 25 1006.3F
S OF BLOCK IS    1455      56                N/A           7/ 8
$$

......................KEY.........................
  SKY/WX - SKY CONDITION/PRESENT WEATHER
  TMP    - TEMPERATURE IN FAHRENHEIT
  DWPT   - DEWPOINT IN FAHRENHEIT
  RH     - RELATIVE HUMIDITY IN PERCENT
  WIND   - DIRECTION AND SPEED IN MPH
  PRES   - MEAN SEA LEVEL PRESSURE IN INCHES OF HG
  WCI    - WIND CHILL INDEX
  VSB    - VISIBILITY IN MILES
  HX     - HEAT INDEX
  TC     - TEMPERATURE IN CELSIUS
  VRB    - VARIABLE WIND DIRECTION
  N/A    - NOT AVAILABLE



USA.gov is the U.S. government's official web portal to all federal, state and local government web resources and services.